TimeEDT,TemperatureF,Dew PointF,Humidity,Sea Level PressureIn,VisibilityMPH,Wind Direction,Wind SpeedMPH,Gust SpeedMPH,PrecipitationIn,Events,Conditions,WindDirDegrees,DateUTC
12:15 AM,73.4,73.4,100,30.05,7.0,South,5.8,-,N/A,,Scattered Clouds,180,2013-07-02 04:15:00
12:35 AM,75.2,75.2,100,30.06,10.0,South,8.1,-,N/A,,Clear,170,2013-07-02 04:35:00
12:55 AM,73.4,73.4,100,30.06,10.0,South,10.4,-,0.01,,Mostly Cloudy,170,2013-07-02 04:55:00
1:15 AM,73.4,73.4,100,30.06,10.0,South,9.2,-,N/A,,Scattered Clouds,180,2013-07-02 05:15:00
1:35 AM,73.4,73.4,100,30.05,10.0,South,5.8,-,N/A,,Scattered Clouds,180,2013-07-02 05:35:00
1:55 AM,73.4,73.4,100,30.05,10.0,South,5.8,-,N/A,,Mostly Cloudy,180,2013-07-02 05:55:00
2:15 AM,75.2,75.2,100,30.05,10.0,South,6.9,-,N/A,,Mostly Cloudy,180,2013-07-02 06:15:00
2:35 AM,75.2,75.2,100,30.05,10.0,South,9.2,16.1,N/A,,Scattered Clouds,180,2013-07-02 06:35:00
2:55 AM,77.0,77.0,100,30.04,10.0,South,8.1,-,N/A,,Mostly Cloudy,180,2013-07-02 06:55:00
3:15 AM,77.0,77.0,100,30.04,10.0,South,8.1,-,N/A,,Scattered Clouds,180,2013-07-02 07:15:00
3:35 AM,77.0,77.0,100,30.05,10.0,South,8.1,-,N/A,,Clear,180,2013-07-02 07:35:00
3:55 AM,77.0,77.0,100,30.05,10.0,South,4.6,-,N/A,,Clear,180,2013-07-02 07:55:00
4:15 AM,75.2,75.2,100,30.05,10.0,South,4.6,-,N/A,,Scattered Clouds,180,2013-07-02 08:15:00
4:35 AM,75.2,75.2,100,30.05,10.0,SSE,5.8,-,N/A,,Scattered Clouds,160,2013-07-02 08:35:00
4:55 AM,75.2,75.2,100,30.06,10.0,SSE,4.6,-,N/A,,Mostly Cloudy,160,2013-07-02 08:55:00
5:15 AM,75.2,75.2,100,30.06,10.0,SSE,4.6,-,N/A,,Scattered Clouds,160,2013-07-02 09:15:00
5:35 AM,75.2,75.2,100,30.07,10.0,SSE,4.6,-,N/A,,Clear,160,2013-07-02 09:35:00
5:55 AM,75.2,75.2,100,30.08,10.0,South,4.6,-,N/A,,Clear,170,2013-07-02 09:55:00
6:15 AM,77.0,77.0,100,30.08,10.0,South,3.5,-,N/A,,Clear,180,2013-07-02 10:15:00
6:35 AM,77.0,77.0,100,30.09,10.0,South,4.6,-,N/A,,Scattered Clouds,180,2013-07-02 10:35:00
6:55 AM,77.0,77.0,100,30.09,10.0,SSE,4.6,-,N/A,,Scattered Clouds,160,2013-07-02 10:55:00
7:15 AM,77.0,77.0,100,30.10,10.0,SSE,3.5,-,N/A,,Scattered Clouds,160,2013-07-02 11:15:00
7:35 AM,77.0,77.0,100,30.10,10.0,SSE,4.6,-,N/A,,Clear,160,2013-07-02 11:35:00
7:55 AM,77.0,77.0,100,30.11,10.0,SSE,4.6,-,N/A,,Scattered Clouds,160,2013-07-02 11:55:00
8:15 AM,78.8,77.0,94,30.11,10.0,South,4.6,-,N/A,,Scattered Clouds,180,2013-07-02 12:15:00
8:35 AM,78.8,78.8,100,30.12,10.0,South,5.8,-,N/A,,Scattered Clouds,170,2013-07-02 12:35:00
8:55 AM,80.6,78.8,94,30.12,10.0,SSE,4.6,-,N/A,,Mostly Cloudy,160,2013-07-02 12:55:00
9:15 AM,78.8,78.8,100,30.12,10.0,SSE,6.9,-,N/A,,Overcast,160,2013-07-02 13:15:00
9:35 AM,78.8,78.8,100,30.12,5.0,SSW,5.8,-,N/A,Rain-Thunderstorm,Thunderstorms and Rain,210,2013-07-02 13:35:00
9:55 AM,78.8,78.8,100,30.11,10.0,Calm,Calm,-,N/A,,Overcast,0,2013-07-02 13:55:00
10:15 AM,75.2,75.2,100,30.12,2.5,SSW,13.8,17.3,N/A,Rain-Thunderstorm,Heavy Thunderstorms and Rain,210,2013-07-02 14:15:00
10:35 AM,73.4,73.4,100,30.12,7.0,SSW,6.9,-,N/A,Rain-Thunderstorm,Light Thunderstorms and Rain,210,2013-07-02 14:35:00
10:55 AM,73.4,73.4,100,30.13,10.0,South,3.5,-,N/A,Rain,Light Rain,170,2013-07-02 14:55:00
11:15 AM,75.2,75.2,100,30.16,5.0,WSW,10.4,-,N/A,Rain,Light Rain,250,2013-07-02 15:15:00
11:35 AM,75.2,75.2,100,30.14,10.0,Calm,Calm,-,N/A,,Mostly Cloudy,0,2013-07-02 15:35:00
11:55 AM,78.8,75.2,89,30.15,10.0,SE,3.5,-,N/A,,Scattered Clouds,140,2013-07-02 15:55:00
12:15 PM,78.8,78.8,100,30.16,10.0,SSE,6.9,-,N/A,Thunderstorm,Overcast,150,2013-07-02 16:15:00
12:35 PM,78.8,77.0,94,30.15,10.0,SE,6.9,-,N/A,,Overcast,140,2013-07-02 16:35:00
12:55 PM,78.8,77.0,94,30.15,10.0,SSE,6.9,-,N/A,Rain,Light Rain,160,2013-07-02 16:55:00
1:15 PM,77.0,77.0,100,30.14,10.0,South,6.9,-,0.01,,Light Drizzle,170,2013-07-02 17:15:00
1:35 PM,77.0,77.0,100,30.14,10.0,South,8.1,-,0.01,Rain,Rain,180,2013-07-02 17:35:00
1:55 PM,77.0,77.0,100,30.15,10.0,South,8.1,-,0.01,Rain,Light Rain,170,2013-07-02 17:55:00
2:15 PM,73.4,73.4,100,30.15,10.0,SSE,8.1,-,N/A,Rain,Light Rain,150,2013-07-02 18:15:00
2:35 PM,73.4,73.4,100,30.14,10.0,South,5.8,-,N/A,Rain,Light Rain,170,2013-07-02 18:35:00
2:55 PM,73.4,73.4,100,30.14,10.0,SSE,5.8,-,N/A,,Scattered Clouds,150,2013-07-02 18:55:00
3:15 PM,75.2,75.2,100,30.14,10.0,SE,6.9,-,N/A,,Drizzle,140,2013-07-02 19:15:00
3:35 PM,77.0,77.0,100,30.14,10.0,SE,4.6,-,N/A,,Scattered Clouds,140,2013-07-02 19:35:00
3:55 PM,78.8,77.0,94,30.13,10.0,SE,9.2,-,N/A,,Clear,140,2013-07-02 19:55:00
4:15 PM,80.6,73.4,79,30.13,10.0,SSE,12.7,17.3,N/A,,Clear,150,2013-07-02 20:15:00
4:35 PM,80.6,73.4,79,30.13,10.0,SE,12.7,-,N/A,,Clear,140,2013-07-02 20:35:00
4:55 PM,78.8,73.4,83,30.12,10.0,SSE,6.9,-,N/A,,Clear,150,2013-07-02 20:55:00
5:15 PM,78.8,73.4,83,30.13,10.0,SE,9.2,-,N/A,Rain,Light Rain,140,2013-07-02 21:15:00
5:35 PM,78.8,73.4,83,30.13,10.0,SE,4.6,-,N/A,,Scattered Clouds,140,2013-07-02 21:35:00
5:55 PM,78.8,75.2,89,30.13,10.0,SE,6.9,-,N/A,Rain,Light Rain,130,2013-07-02 21:55:00
6:15 PM,78.8,75.2,89,30.14,10.0,SSE,4.6,-,N/A,,Clear,150,2013-07-02 22:15:00
6:35 PM,78.8,75.2,89,30.15,10.0,SSE,3.5,-,N/A,,Scattered Clouds,160,2013-07-02 22:35:00
6:55 PM,78.8,77.0,94,30.14,10.0,SSE,4.6,-,N/A,,Scattered Clouds,150,2013-07-02 22:55:00
7:15 PM,78.8,77.0,94,30.15,10.0,SSE,8.1,-,N/A,,Scattered Clouds,150,2013-07-02 23:15:00
7:35 PM,78.8,75.2,89,30.15,10.0,SSE,4.6,-,N/A,,Scattered Clouds,150,2013-07-02 23:35:00
7:55 PM,77.0,75.2,94,30.15,10.0,SSE,3.5,-,N/A,,Scattered Clouds,150,2013-07-02 23:55:00
8:15 PM,77.0,75.2,94,30.15,10.0,SSE,4.6,-,N/A,,Clear,160,2013-07-03 00:15:00
8:35 PM,77.0,77.0,100,30.16,10.0,SE,5.8,-,N/A,,Clear,140,2013-07-03 00:35:00
8:55 PM,77.0,77.0,100,30.16,10.0,SE,4.6,-,N/A,,Clear,140,2013-07-03 00:55:00
9:15 PM,77.0,77.0,100,30.16,10.0,SSE,4.6,-,N/A,,Clear,150,2013-07-03 01:15:00
9:35 PM,77.0,77.0,100,30.16,10.0,SE,4.6,-,N/A,,Clear,140,2013-07-03 01:35:00
9:55 PM,75.2,75.2,100,30.17,10.0,SSE,4.6,-,N/A,,Clear,150,2013-07-03 01:55:00
10:15 PM,77.0,77.0,100,30.17,10.0,SSE,4.6,-,N/A,,Clear,150,2013-07-03 02:15:00
10:35 PM,77.0,77.0,100,30.18,10.0,SSE,5.8,-,N/A,,Clear,160,2013-07-03 02:35:00
10:55 PM,77.0,77.0,100,30.19,10.0,SSE,4.6,-,N/A,,Clear,160,2013-07-03 02:55:00
11:15 PM,77.0,77.0,100,30.19,10.0,SSE,4.6,-,N/A,,Clear,150,2013-07-03 03:15:00
11:35 PM,77.0,77.0,100,30.19,10.0,SSE,3.5,-,N/A,,Clear,160,2013-07-03 03:35:00
11:55 PM,75.2,75.2,100,30.18,10.0,SSE,3.5,-,N/A,,Clear,150,2013-07-03 03:55:00